RH
54 52 50 51 52 54 56 59 59 59 55 51 49 50 50 49 46 45 48 64 69 69 68 66 60 60 62 57 57 59 67 71 65 72 82 90 82 84 84 84 86 87 86
52 49 51 53 53 57 58 58 59 60 57 53 50 51 53 51 48 47 45 49 66 69 69 68 63 60 61 58 56 57 64 68 64 73 82 92 91 83 83 82 82 83 87
51 52 55 57 59 60 65 62 58 59 59 52 48 50 53 52 52 48 46 48 51 62 66 69 68 63 60 59 56 59 69 64 64 78 83 86 88 89 82 84 84 85 88
54 56 58 60 66 68 68 68 67 72 66 60 54 54 54 54 54 50 51 51 51 50 57 66 68 65 61 58 57 68 72 62 82 82 85 88 86 84 80 82 85 86 86
57 58 64 68 65 70 70 74 73 75 70 59 57 54 54 60 60 54 55 56 57 58 53 58 66 66 63 61 59 69 62 70 78 84 89 90 92 86 84 84 83 84 84
60 64 68 70 74 74 72 71 87 67 67 74 66 70 63 56 56 57 58 54 58 62 60 56 53 46 59 60 62 65 66 71 68 71 80 84 88 91 90 86 88 85 83
60 63 64 68 80 86 85 84 87 87 82 67 95 85 75 54 50 56 57 67 60 58 57 54 52 46 41 59 66 60 64 69 58 61 67 71 79 85 89 86 90 88 85
61 60 63 76 74 88 87 86 91 95 89 82 98 97 89 62 54 55 64 70 61 54 50 46 45 42 46 51 62 63 75 72 51 62 67 69 74 83 85 88 87 86 88
62 64 66 68 73 84 94 88 92 96 97 88 89 97 99 97 87 69 71 75 72 64 62 57 44 45 50 50 63 72 76 70 52 49 52 58 68 78 88 86 87 89 85
58 62 65 70 74 75 81 89 81 90 91 97 87 85 91 95 98 95 81 90 83 67 66 64 52 50 48 63 64 69 68 69 66 43 42 45 49 51 56 82 88 86 91
57 60 63 70 73 73 74 76 82 88 88 88 95 92 90 92 89 97 95 96 91 74 61 63 60 57 54 50 57 63 65 62 54 43 40 40 40 41 42 47 64 81 86
60 58 64 71 73 73 73 75 76 84 84 83 84 88 94 96 96 97 97 97 98 86 62 60 66 65 70 69 57 60 62 64 60 52 47 43 43 45 48 49 46 51 74
61 60 70 76 76 75 70 69 71 72 84 87 78 88 90 86 89 92 91 97 99 96 83 58 57 62 64 65 69 72 63 57 63 55 51 48 50 50 50 55 56 51 52
61 61 69 72 73 72 71 68 69 69 75 80 78 75 78 81 91 83 95 97 98 98 96 90 60 56 59 63 70 75 67 67 61 62 53 57 57 53 52 57 67 51 67
57 60 67 70 73 71 70 69 71 64 64 71 73 89 89 80 93 78 76 87 96 96 98 96 90 56 56 58 67 59 62 71 68 68 66 62 57 57 60 68 70 69 72
63 63 67 67 72 71 69 65 69 63 63 61 68 76 76 86 86 92 84 77 81 81 88 76 74 72 61 48 61 57 60 63 68 69 71 74 66 58 60 62 68 74 75
63 61 65 66 64 71 70 62 63 58 60 62 64 77 78 83 93 86 84 83 83 80 78 58 61 60 58 63 56 56 58 60 57 65 66 69 71 72 63 62 66 64 67
64 62 64 64 63 66 69 69 59 60 59 61 62 67 64 67 79 91 88 75 84 81 88 76 71 60 70 71 65 70 65 55 64 67 67 66 66 72 75 68 70 64 63
63 61 62 65 66 66 71 76 60 58 60 59 62 65 67 71 65 83 86 93 89 80 85 86 79 70 65 71 74 70 67 65 55 63 67 69 71 68 70 78 75 73 72
64 62 62 65 69 62 67 79 63 63 59 60 65 66 64 73 65 78 74 82 82 86 88 85 83 87 83 76 78 88 88 84 75 60 67 68 71 72 70 72 79 78 76
64 64 65 64 64 62 64 77 68 66 69 65 64 62 65 76 80 67 72 66 80 95 91 90 90 84 89 92 99 94 92 92 92 92 90 77 66 61 60 65 67 78 84
63 63 64 66 68 59 76 72 64 68 69 69 67 67 65 69 76 79 74 73 70 77 85 77 83 95 100 100 100 100 100 91 96 89 88 90 75 68 62 60 72 73 76
63 60 61 64 68 68 73 71 67 66 73 72 68 70 67 62 76 80 78 73 72 70 71 72 72 77 99 100 100 100 100 100 100 100 90 97 82 86 60 58 74 75 71
61 62 63 64 67 63 72 72 71 67 68 67 67 71 72 71 71 74 80 69 72 73 75 69 78 98 99 100 100 99 100 100 100 99 88 100 97 100 80 64 74 72 72
63 65 67 68 67 68 73 74 66 64 66 64 62 68 68 72 68 60 80 79 81 81 73 81 79 76 77 77 86 90 97 91 94 96 83 90 99 96 86 81 61 74 76
62 64 65 66 73 68 75 74 63 62 64 64 60 64 73 70 65 64 81 89 100 100 86 82 81 74 74 75 84 80 83 87 86 86 87 84 87 87 88 82 81 68 62
Wind_Speed
9 9 9 8 8 8 8 9 9 9 10 11 12 13 13 13 13 10 9 20 20 21 22 23 22 22 23 22 24 24 23 23 20 16 18 25 22 20 22 19 18 16 20
8 9 9 9 9 9 9 9 9 9 9 11 12 12 13 13 13 14 11 12 21 20 21 23 22 21 23 23 24 24 25 23 18 15 12 14 16 20 20 18 18 17 17
10 10 8 9 9 9 11 9 9 9 9 11 12 12 11 13 13 14 12 11 13 18 20 22 23 22 22 23 24 27 27 21 16 14 13 16 16 20 17 17 19 18 18
10 9 8 8 9 8 8 8 9 9 10 10 11 10 10 12 15 15 13 11 11 11 14 20 23 22 22 23 25 27 22 14 10 5 9 15 15 15 20 19 19 18 19
10 8 6 7 10 7 8 8 9 9 10 10 11 11 12 11 13 11 14 13 13 13 10 16 20 21 22 22 25 22 15 13 10 12 12 9 5 6 13 17 19 21 20
10 9 7 8 9 8 7 7 8 10 10 10 11 12 12 12 9 9 10 9 12 14 13 12 10 10 19 20 22 17 16 13 11 10 12 13 11 12 10 6 15 20 20
9 10 8 9 9 8 9 8 7 9 8 10 8 9 9 12 10 6 7 8 12 10 11 10 8 8 8 15 17 14 14 11 11 11 11 11 8 8 9 10 8 6 15
11 9 10 9 11 8 10 9 8 6 5 8 5 9 6 7 3 12 7 9 11 7 7 8 10 10 9 6 9 7 14 6 9 14 11 10 8 8 3 3 2 7 5
9 10 10 9 10 8 7 9 8 8 6 7 8 4 4 3 8 3 7 9 12 6 5 6 7 6 5 4 6 13 19 12 9 12 11 13 15 9 4 3 5 6 7
9 9 9 9 9 8 9 8 9 9 7 6 6 3 4 7 4 6 5 7 10 8 8 5 5 3 2 1 1 7 16 14 10 6 8 10 11 9 7 7 8 12 6
8 9 10 9 9 8 10 11 11 10 7 8 7 6 4 6 3 4 6 8 7 7 8 7 6 5 5 5 4 7 14 12 12 9 7 8 8 8 6 4 2 6 8
6 9 10 8 8 9 10 9 9 9 8 8 7 8 6 3 4 4 4 4 6 5 6 9 9 8 7 6 6 7 8 7 10 10 9 8 8 10 9 7 5 6 6
7 9 10 9 7 8 9 10 10 10 7 7 10 7 7 6 6 4 5 4 3 3 4 7 9 9 8 6 9 12 6 4 8 7 8 8 8 8 8 11 11 9 8
7 9 9 9 9 8 7 8 7 8 9 9 11 10 8 6 6 6 3 4 3 2 3 11 6 9 9 8 14 17 10 9 6 9 8 8 7 8 7 7 10 9 3
6 9 9 9 9 9 8 8 6 8 9 9 10 9 8 7 5 6 4 2 3 4 2 5 5 10 8 8 12 8 9 15 14 12 8 7 6 6 7 8 7 2 4
7 8 9 10 9 9 9 9 7 8 9 8 7 11 10 8 6 6 5 4 3 3 3 2 3 6 8 6 10 8 8 11 15 13 13 13 7 5 6 5 6 5 5
7 8 8 8 9 9 9 8 8 8 9 10 10 9 11 10 8 5 4 4 4 3 4 3 1 3 5 8 7 6 5 6 6 13 12 12 12 10 7 4 2 4 5
8 7 7 8 9 9 9 7 8 7 8 10 10 10 11 9 9 6 4 7 5 3 2 5 2 3 4 8 7 6 6 6 5 8 9 10 11 11 12 7 2 3 3
8 8 7 8 9 9 9 7 6 7 7 7 8 9 10 11 11 9 7 7 5 4 3 2 3 2 2 5 5 5 7 7 5 9 9 9 10 11 11 13 5 4 2
7 8 7 8 8 10 8 7 4 6 7 6 7 7 9 10 9 7 7 7 8 7 3 3 1 2 2 3 4 5 6 7 7 7 8 8 9 9 9 10 11 6 6
6 7 8 9 9 8 7 1 4 7 7 8 8 7 7 11 14 10 7 7 7 5 5 5 4 3 3 4 4 4 4 6 5 5 6 6 7 5 5 7 7 8 8
6 6 6 7 9 6 14 15 9 6 7 6 8 9 9 9 10 8 13 11 9 6 4 4 3 3 2 2 1 2 4 5 5 1 7 8 7 7 6 5 10 10 9
5 6 6 6 8 8 13 16 12 5 6 7 7 7 8 7 10 1 6 9 9 10 9 5 4 4 1 3 2 1 1 2 3 3 4 6 5 8 7 6 9 10 10
4 5 5 6 7 6 14 14 12 5 6 7 6 7 7 10 8 1 3 6 5 4 6 5 5 4 3 4 4 3 2 2 4 5 4 3 1 3 5 6 10 11 13
4 4 5 7 6 7 12 13 11 5 6 7 6 6 8 8 12 8 2 6 6 4 5 9 7 6 7 9 1 3 2 3 3 2 2 2 1 4 5 7 6 7 7
6 5 7 6 9 8 11 12 11 3 7 6 6 6 9 10 12 11 3 4 5 1 5 6 6 6 6 6 5 2 1 3 3 3 1 3 4 5 4 1 3 5 7
Wind_Direction
335 332 332 329 329 331 327 325 321 318 317 317 315 301 300 294 294 290 291 294 294 292 283 276 274 276 279 272 268 265 261 260 256 267 268 232 216 214 214 207 199 199 204
330 330 332 331 332 332 325 320 317 315 315 318 314 307 298 294 291 284 286 290 291 287 286 276 272 276 279 276 272 259 262 252 254 248 249 240 221 220 216 209 206 199 195
337 335 332 330 331 330 325 321 314 312 314 316 313 311 301 291 291 286 280 283 286 284 284 276 271 272 276 278 273 265 265 244 250 235 233 230 230 225 224 211 201 201 196
339 335 333 327 331 322 320 325 324 322 318 311 314 309 303 304 298 291 284 283 282 282 282 275 271 272 277 275 276 270 235 229 185 144 225 231 236 249 214 221 212 204 201
342 336 323 321 326 319 316 330 323 315 316 313 311 312 306 304 293 293 290 286 289 277 272 269 270 273 280 280 279 259 228 211 178 127 109 104 83 242 247 228 216 213 205
345 335 324 327 328 328 326 330 319 315 313 309 316 309 302 302 291 287 285 290 298 283 263 261 266 272 277 278 276 256 213 185 163 138 114 100 77 64 28 277 231 219 214
345 345 340 338 326 329 326 318 315 310 311 325 302 304 301 294 307 297 310 294 302 287 260 254 256 266 274 275 271 256 203 191 187 174 154 131 105 56 65 26 344 287 229
350 345 345 333 340 324 324 327 316 309 292 319 302 303 316 327 346 315 336 327 320 311 261 256 260 262 267 265 278 208 121 48 184 105 142 132 127 129 18 15 19 338 223
347 349 352 348 345 337 320 328 316 307 309 325 312 312 320 316 323 302 335 340 335 338 339 296 267 268 252 257 245 126 122 126 57 86 89 82 80 84 85 158 314 194 288
346 347 345 345 348 346 334 326 334 334 334 322 320 297 296 300 318 312 325 336 333 353 359 345 334 352 110 92 9 121 130 138 120 34 56 71 74 59 60 42 358 351 261
346 347 348 345 347 349 346 341 337 338 340 332 336 325 298 325 297 312 322 338 335 349 12 2 9 5 35 99 136 104 127 134 116 115 95 64 54 49 19 14 15 321 308
339 348 348 347 337 343 350 346 344 338 345 346 341 332 328 307 312 325 315 323 324 318 4 28 26 12 22 41 56 60 67 122 135 118 94 69 49 30 13 347 321 266 290
340 343 347 341 340 336 343 350 350 350 340 343 342 333 328 339 331 297 330 332 324 316 344 29 29 13 15 29 52 41 61 102 85 102 87 65 44 31 7 342 322 293 291
329 330 336 340 339 337 340 346 352 346 351 350 346 340 334 329 328 330 338 335 323 330 337 4 10 19 12 21 41 42 25 63 98 104 99 81 50 20 2 340 328 289 213
323 341 339 340 340 350 348 343 344 348 347 352 350 338 328 337 321 324 341 337 335 342 336 353 338 358 8 21 40 56 44 51 68 67 76 88 64 36 11 6 12 90 207
319 328 341 345 344 342 350 352 344 347 351 359 355 349 348 343 344 315 339 325 285 342 328 355 349 343 352 17 25 28 40 54 52 52 50 50 35 27 7 353 17 54 86
325 323 329 335 342 340 349 348 349 349 354 353 357 353 354 350 343 340 315 305 299 288 319 4 287 336 354 6 15 22 27 36 46 38 34 33 33 20 356 7 59 82 102
321 321 324 327 329 334 333 338 346 346 348 351 351 349 350 352 355 342 333 319 311 315 312 325 323 344 5 355 357 19 19 33 35 23 19 19 23 20 15 342 101 84 51
325 326 337 332 326 327 326 328 342 344 343 348 347 346 342 347 6 357 356 356 351 320 298 296 315 336 344 12 350 8 22 13 19 14 13 4 5 6 10 6 301 198 191
322 328 336 335 332 325 321 310 339 345 347 349 343 341 340 334 349 356 4 7 343 347 297 286 317 347 340 8 23 2 2 2 346 353 359 2 2 3 5 358 354 281 225
323 325 333 336 335 334 337 287 360 356 345 342 339 338 335 326 344 2 355 1 358 0 358 13 21 348 6 6 8 341 342 343 338 2 353 352 352 352 355 347 332 335 315
325 334 336 334 335 334 332 352 10 350 343 340 335 331 334 337 333 345 355 3 3 20 43 29 359 352 6 318 357 341 342 351 332 27 346 325 326 321 328 331 338 327 323
322 328 332 336 334 330 337 338 359 353 334 336 331 329 330 333 344 358 360 12 18 18 14 6 349 345 240 225 198 168 187 242 272 295 309 301 324 312 310 309 318 316 311
325 323 322 328 326 327 340 338 356 353 340 337 332 331 323 326 333 177 348 5 6 16 356 357 347 301 253 236 217 183 234 286 270 268 241 273 314 288 308 306 294 298 300
312 313 311 318 322 321 335 337 335 339 338 336 337 335 336 330 328 3 333 348 342 9 1 4 356 350 356 1 141 200 275 328 321 305 306 283 286 300 285 278 294 324 315
302 312 310 311 315 321 327 332 334 331 332 329 333 334 344 336 349 352 30 339 312 324 352 10 5 10 16 14 28 14 261 289 292 293 117 331 329 335 317 344 344 334 327